Location: Caltech
(34.1382°N, 118.1253°W)
Time: 08:58:40
(UTC-08:00)

Iridium 18 - Visible Passes

Search period start: 14 February 2016 00:00
Search period end: 24 February 2016 00:00
Orbit: 776 x 779 km, 86.4° (Epoch: 13 February)

Date Brightness Start Highest point End Pass type
(mag) Time Alt. Az. Time Alt. Az. Time Alt. Az.
14 Feb 6.8 04:53:40 10° SSE 04:58:31 41° E 05:03:23 10° NNE visible
15 Feb 8.0 04:21:21 10° SE 04:25:13 21° E 04:29:05 10° NE visible
15 Feb 6.1 06:00:56 10° SSW 06:05:38 34° W 06:10:23 10° NNW visible
15 Feb 8.6 18:16:47 10° NW 18:19:33 15° W 18:22:20 10° WSW visible
16 Feb 8.7 03:50:57 10° E 03:52:01 11° ENE 03:53:07 10° ENE visible
16 Feb 5.4 05:26:51 10° S 05:32:02 68° W 05:37:14 10° N visible
17 Feb 6.0 04:53:25 10° SSE 04:58:33 62° E 05:03:41 10° N visible
18 Feb 7.3 04:20:37 10° SE 04:25:10 31° E 04:29:44 10° NNE visible
18 Feb 6.6 06:01:44 10° SW 06:05:51 23° W 06:09:59 10° NNW visible
19 Feb 8.2 03:48:44 10° ESE 03:51:55 16° E 03:55:05 10° NE visible
19 Feb 5.8 05:27:12 10° SSW 05:32:10 45° W 05:37:10 10° NNW visible
20 Feb 5.4 04:53:24 10° S 04:58:36 88° W 05:03:51 10° N visible
21 Feb 6.5 04:20:12 10° SSE 04:25:09 47° E 04:30:09 10° NNE visible
21 Feb 7.0 06:02:59 10° WSW 06:06:06 16° WNW 06:09:13 10° NW visible
22 Feb 7.6 03:47:42 10° SE 03:51:50 24° E 03:55:58 10° NNE visible
22 Feb 6.2 05:27:48 10° SW 05:32:20 30° W 05:36:54 10° NNW visible
23 Feb 8.5 03:16:31 10° ESE 03:18:37 12° E 03:20:44 10° NE visible
23 Feb 5.5 04:53:36 10° SSW 04:58:43 59° W 05:03:52 10° N visible
